Location: Meanaryar
(48.4161°N, 4.7315°W)
Time: 16:10:57
(UTC+00:00)

ARGOS - Pass Details

Date: 18 September 2020
Orbit: 821 x 834 km, 98.4° (Epoch: 30 October)

Event Time Altitude Azimuth Distance (km) Brightness Sun altitude
Rises 19:14:45 0° 156° (SSE) 3,342 6.0 -9.1°
Reaches altitude 10° 19:17:05 10° 154° (SSE) 2,414 5.2 -9.5°
Maximum altitude 19:22:24 70° 72° (ENE) 880 3.1 -10.3°
Drops below altitude 10° 19:27:45 10° 350° (N) 2,437 5.9 -11.2°
Sets 19:30:08 0° 348° (NNW) 3,377 6.7 -11.6°
